星链-5692 (STARLINK-5692 )

导读

STARLINK-5692是美国SpaceX星链(Starlink)星座的组网卫星,于2023年2月2日发射入轨。星链项目旨在构建全球覆盖的空间互联网通信系统,该卫星运行于近地轨道,通过Ku/Ka频段以及激光星间链路技术,为全球用户提供高速低延迟的宽带接入服务,助力实现偏远地区网络覆盖、移动网络通信等应用,是星链大规模低轨星座部署的组成单元。

Basic Information
目录编号:
55483
目录名称:
STARLINK-5692
国际标识:
2023-015AL
轨道中心:
EARTH
卫星名称:
星链-5692
卫星全名:
星链-5692 (STARLINK-5692 )
卫星状态:
在轨 (已飞行1317 天)
发射日期:
2023-02-02 UTC
国别 :
美国 (US)
星等 :
--
This satellite is enrolled in the Space Conjunction Data Service (SCDS) and the current flight risk assessment level is: High Risk
Orbit Information
数据来源 国际轨道数据
星历时间: 2026-09-10T23:29:26+0800
19小时前
查看轨道信息
半长轴: 6861.213km
偏心率: 0.0001446
轨道倾角: 43.004°
近地点辐角 273.903°
升交点赤经 15.050°
平近点角 86.166°
近地点: 482.083km
远地点: 484.069km
周期: 94.267分钟
每日圈数: 15.275713
Detailed Information
固有亮度:
5
最大亮度:
2.5
卫星平台:
Starlink v1.5
覆盖范围:
全球
运营商:
太空探索技术公司
运营商所在国:
美国
制造商(研发单位):
太空探索技术公司
制造商所在国:
美国
使用方式:
暂无
Satellite Introduction
星链(Starlink)计划是由太空探索技术公司(SpaceX)提出的一个巨型低轨卫星互联网星座项目,计划在2019年至2024年间在太空搭建由约1.2万颗卫星组成的“星链”网络,其中1584颗将部署在地球上空550千米处的近地轨道,并从2020年开始工作。该卫星仍在工作。
2D Orbit Map
3D Orbit Map
Orbit Altitude Analysis Chart
Orbit Inclination Analysis Chart
Orbit Comprehensive Analysis Chart
View Comprehensive Chart
Conjunction Data List
Event ID Objects TCA Miss Dist (km) Collision Risk Probability Collision Risk Index (CRI) Action
CDM_260913-110305-548306-210021
2026-09-13T
11:03:39+0000
0.446 km
远距离
2.106896E-4 高风险 0.81
CDM_260913-111905-548306-749321
2026-09-13T
11:19:18+0000
0.330 km
远距离
1.838765E-4 高风险 0.8
CDM_260911-192805-548306-661321
2026-09-11T
19:28:34+0000
0.500 km
远距离
1.252075E-4 高风险 0.77
CDM_260912-000905-548306-704521
2026-09-12T
00:09:02+0000
0.561 km
远距离
8.047114E-5 中风险 0.73
CDM_260913-031505-548306-745321
2026-09-13T
03:15:14+0000
1.015 km
极远距离
1.898687E-5 中风险 0.61
CDM_260913-014105-548306-745321
2026-09-13T
01:41:05+0000
1.306 km
极远距离
7.920948E-6 低风险 0.53
CDM_260912-071205-548306-704521
2026-09-12T
07:12:43+0000
1.267 km
极远距离
5.714915E-6 低风险 0.5
CDM_260913-123705-548306-210021
2026-09-13T
12:37:48+0000
1.607 km
极远距离
4.138524E-6 低风险 0.47
CDM_260912-040605-548306-661321
2026-09-12T
04:06:25+0000
1.634 km
极远距离
2.949221E-6 低风险 0.44
CDM_260913-134005-548306-749321
2026-09-13T
13:40:32+0000
1.412 km
极远距离
2.395242E-6 低风险 0.43
Miss Distance Evolution Trend with All Objects
Collision Probability Evolution Trend with All Objects